Weather in Ladva

Russia / Republic of Karelia     61°21′21″N   34°37′45″E
temp.,
°C
wind,
m/s
gust,
m/s
humid.,
%
clouds,
%
prec.,
mm/h
press.,
hPa
HPBL,
m
17 june, thu
thu1700:00+9w2962100 0.0 1018176
03:00+11wsw2559100 0.0 1019150
06:00+12wsw136099 0.0 102092
09:00+17wsw134379 0.0 1021896
12:00+21wnw363565 0.0 10212301
15:00+23wnw35305 0.0 10212424
18:00+23wsw44365 0.0 10212016
21:00+18wsw385774 0.0 1022241
18 june, fri
fri1800:00+13wsw267469 0.0 1023115
03:00+12sw287494 0.0 1023162
06:00+16sw310615 0.0 1023306
09:00+22sw510478 0.0 1021938
12:00+26wsw610375 0.0 10201922
15:00+26wsw6103527 0.0 10191861
18:00+26wsw5103843 0.0 10191631
21:00+21wsw4105073 0.0 1018554
19 june, sat
sat1900:00+16sw314655 0.0 1018350
03:00+17sw415680 0.0 1018426
06:00+18wsw414650 0.0 1019543
09:00+24wsw511470 0.0 10191043
12:00+27wsw610400 0.0 10181771
15:00+28wsw68391 0.0 10181901
18:00+27wsw48415 0.0 10181885
21:00+22sw23641 0.0 101850
20 june, sun
sun2000:00+18sw25770 0.0 101980
03:00+17sw26810 0.0 1019113
06:00+20sw28730 0.0 1018230
09:00+26sw47485 0.0 1017890
12:00+29sw59374 0.0 10162440
15:00+30wsw69353 0.0 10152375
18:00+29wsw511400 0.0 10152247
21:00+24sw27606 0.0 1015160
21 june, mon
mon2100:00+20wsw287533 0.0 1015163
03:00+18wsw310778 0.0 1016228
06:00+21wsw310735 0.0 1017335
09:00+26wsw48535 0.0 1017986
12:00+29wsw47416 0.0 10182007
15:00+31w56356 0.0 10182606
18:00+30w45365 0.0 10182020
21:00+24w11625 0.0 101811